CW3702 Weather Reports


time (UTC)temp
F
wind
direction
speed
knots
gust
knots
rain 1hr
in
rain 24hr
in
rain mn
in
humidity
%
barometer
mb
20260507180519 55 256 4.3 12.2 0.00 0.02 0.00 24 1018.4
20260507180031 55 245 6.1 12.2 0.00 0.02 0.00 25 1018.5
20260507175515 55 230 3.5 12.2 0.00 0.02 0.00 25 1018.5
20260507175016 56 270 7.8 12.2 0.00 0.02 0.00 25 1018.6
20260507174540 56 239 2.6 10.4 0.00 0.02 0.00 27 1018.7
20260507174014 56 290 4.3 10.4 0.00 0.02 0.00 26 1018.7
20260507173514 55 240 6.1 14.8 0.00 0.02 0.00 29 1018.7
20260507173036 56 254 8.7 14.8 0.00 0.02 0.00 27 1018.7
20260507172513 55 297 7.8 12.2 0.00 0.02 0.00 27 1018.9
20260507172015 55 269 8.7 11.3 0.00 0.02 0.00 27 1019.0
20260507171535 55 298 6.1 11.3 0.00 0.02 0.00 28 1019.1
20260507171012 55 256 5.2 9.6 0.00 0.02 0.00 28 1018.9
20260507170512 55 242 5.2 10.4 0.00 0.02 0.00 27 1019.1
20260507170041 54 303 5.2 11.3 0.00 0.02 0.00 27 1019.1
20260507165514 54 301 6.1 11.3 0.00 0.03 0.00 27 1019.1
20260507165015 54 271 5.2 10.4 0.00 0.03 0.00 27 1019.2
20260507164533 54 299 7.0 12.2 0.00 0.03 0.00 27 1019.2
20260507164018 54 289 7.8 12.2 0.00 0.03 0.00 26 1019.2
20260507163515 53 244 7.0 10.4 0.00 0.03 0.00 24 1019.3
20260507163029 53 252 6.1 11.3 0.00 0.03 0.00 29 1019.4
20260507162512 53 235 7.0 13.0 0.00 0.03 0.00 29 1019.4
20260507162014 53 252 8.7 13.0 0.00 0.03 0.00 30 1019.4
20260507161532 52 278 7.0 11.3 0.00 0.03 0.00 32 1019.5
20260507161013 52 252 7.0 11.3 0.00 0.03 0.00 34 1019.4
20260507160512 51 264 6.1 12.2 0.00 0.03 0.00 35 1019.4
20260507160033 51 238 7.0 12.2 0.00 0.03 0.00 37 1019.4
20260507155513 51 280 8.7 12.2 0.00 0.03 0.00 40 1019.4
20260507155013 50 242 8.7 13.0 0.00 0.03 0.00 41 1019.4
20260507154533 50 271 8.7 13.0 0.00 0.03 0.00 42 1019.4
20260507154014 49 255 8.7 13.0 0.00 0.03 0.00 41 1019.5
20260507153512 49 254 10.4 13.0 0.00 0.03 0.00 41 1019.4
20260507153031 49 247 10.4 12.2 0.00 0.03 0.00 42 1019.3
20260507152518 49 245 8.7 12.2 0.00 0.03 0.00 42 1019.4
20260507152015 48 245 9.6 12.2 0.00 0.03 0.00 43 1019.4
20260507151531 48 252 8.7 13.9 0.00 0.03 0.00 43 1019.4
20260507151012 48 245 7.8 13.9 0.00 0.03 0.00 44 1019.3
20260507150514 47 261 9.6 13.9 0.00 0.03 0.00 42 1019.4
20260507150033 47 254 9.6 13.0 0.00 0.03 0.00 41 1019.3
20260507145515 47 240 9.6 13.9 0.00 0.03 0.00 42 1019.2
20260507145012 46 241 9.6 13.9 0.00 0.03 0.00 44 1019.2
20260507144530 46 254 9.6 13.9 0.00 0.03 0.00 45 1019.3
20260507144014 45 254 10.4 13.9 0.00 0.03 0.00 45 1019.4
20260507143514 45 254 10.4 13.9 0.00 0.03 0.00 45 1019.3
20260507143034 44 248 9.6 13.9 0.00 0.03 0.00 46 1019.3
20260507142512 43 248 8.7 11.3 0.00 0.03 0.00 47 1019.2
20260507142014 43 263 7.8 11.3 0.00 0.03 0.00 48 1019.5
20260507141531 43 254 7.8 11.3 0.00 0.03 0.00 46 1019.4
20260507141012 44 261 7.8 10.4 0.00 0.03 0.00 45 1019.4
20260507140513 44 259 4.3 8.7 0.00 0.03 0.00 45 1019.3
20260507140032 44 246 5.2 8.7 0.00 0.03 0.00 41 1019.4
20260507135517 44 0 0.0 5.2 0.00 0.03 0.00 44 1019.2
20260507135015 44 169 1.7 5.2 0.00 0.03 0.00 44 1019.3
20260507134531 44 0 0.0 1.7 0.00 0.03 0.00 45 1019.2
20260507134015 43 0 0.0 1.7 0.00 0.03 0.00 46 1019.2
20260507133513 42 0 0.0 1.7 0.00 0.03 0.00 48 1019.0
20260507133030 41 0 0.0 1.7 0.00 0.03 0.00 48 1019.0
20260507132515 40 0 0.0 3.5 0.00 0.03 0.00 50 1019.0
20260507132015 39 0 0.0 3.5 0.00 0.03 0.00 51 1019.0
20260507131536 39 138 1.7 3.5 0.00 0.03 0.00 52 1018.9
20260507131016 38 133 0.9 2.6 0.00 0.03 0.00 53 1019.1
20260507130515 37 144 0.9 1.7 0.00 0.03 0.00 56 1018.9
20260507130032 36 0 0.0 3.5 0.00 0.03 0.00 57 1018.8
20260507125512 35 143 0.0 5.2 0.00 0.03 0.00 58 1018.7
20260507125011 34 0 1.7 5.2 0.00 0.03 0.00 58 1018.7
20260507124528 34 171 3.5 5.2 0.00 0.03 0.00 58 1018.7
20260507124016 33 155 2.6 6.1 0.00 0.03 0.00 58 1018.6
20260507123514 33 147 2.6 6.1 0.00 0.03 0.00 58 1018.6
20260507123030 32 142 3.5 6.1 0.00 0.03 0.00 59 1018.5
20260507122513 31 142 3.5 6.1 0.00 0.03 0.00 60 1018.3
20260507122014 31 130 3.5 6.1 0.00 0.03 0.00 61 1018.2
20260507121532 30 117 2.6 7.0 0.00 0.03 0.00 60 1018.4
20260507121012 30 151 4.3 7.0 0.00 0.03 0.00 60 1018.3
20260507120514 30 130 3.5 6.1 0.00 0.03 0.00 60 1018.2
20260507120039 30 160 0.9 4.3 0.00 0.03 0.00 60 1018.3
20260507115514 30 160 0.9 3.5 0.00 0.03 0.00 60 1018.4
20260507115015 30 118 1.7 3.5 0.00 0.03 0.00 60 1018.4
20260507114532 30 173 0.0 2.6 0.00 0.03 0.00 61 1018.4
20260507114013 30 173 0.0 3.5 0.00 0.03 0.00 61 1018.4
20260507113513 30 173 0.9 3.5 0.00 0.03 0.00 62 1018.3
20260507113030 29 0 0.0 3.5 0.00 0.03 0.00 62 1018.4
20260507112514 29 169 0.9 5.2 0.00 0.03 0.00 62 1018.3
20260507112014 30 169 2.6 5.2 0.00 0.03 0.00 62 1018.4
20260507111531 30 170 3.5 5.2 0.00 0.03 0.00 62 1018.5
20260507111014 30 179 3.5 5.2 0.00 0.03 0.00 63 1018.3
20260507110515 30 179 2.6 5.2 0.00 0.03 0.00 63 1018.3
20260507110030 30 163 3.5 6.1 0.00 0.03 0.00 63 1018.2
20260507105512 30 146 2.6 6.1 0.00 0.03 0.00 64 1018.3
20260507105012 30 163 2.6 5.2 0.00 0.03 0.00 64 1018.2
20260507104532 30 238 1.7 3.5 0.00 0.03 0.00 64 1018.3
20260507104015 30 238 1.7 3.5 0.00 0.03 0.00 64 1018.4
20260507103517 31 238 0.9 5.2 0.00 0.03 0.00 63 1018.4
20260507103033 32 238 0.9 7.8 0.00 0.03 0.00 63 1018.4
20260507102515 32 233 3.5 8.7 0.00 0.03 0.00 63 1018.4
20260507102014 31 246 4.3 8.7 0.00 0.03 0.00 64 1018.5
20260507101531 31 244 4.3 8.7 0.00 0.03 0.00 65 1018.6
20260507101011 31 246 3.5 7.8 0.00 0.03 0.00 66 1018.6
20260507100512 32 246 2.6 7.8 0.00 0.03 0.00 67 1018.6
20260507100035 31 248 5.2 7.8 0.00 0.03 0.00 67 1018.6
20260507095517 31 255 3.5 7.0 0.00 0.03 0.00 68 1018.5
20260507095015 31 255 4.3 7.0 0.00 0.03 0.00 69 1018.5
20260507094537 31 279 3.5 8.7 0.00 0.03 0.00 69 1018.5
20260507094012 32 279 3.5 8.7 0.00 0.03 0.00 69 1018.5
20260507093512 31 263 6.1 8.7 0.00 0.03 0.00 69 1018.4
20260507093030 31 251 5.2 8.7 0.00 0.03 0.00 71 1018.4
20260507092513 31 255 7.0 9.6 0.00 0.03 0.00 71 1018.5
20260507092014 31 251 6.1 9.6 0.00 0.03 0.00 72 1018.5
20260507091531 32 267 7.0 9.6 0.00 0.03 0.00 72 1018.6
20260507091014 31 260 6.1 8.7 0.00 0.03 0.00 75 1018.5
20260507090515 31 267 6.1 8.7 0.00 0.03 0.00 76 1018.7
20260507090036 31 258 6.1 8.7 0.00 0.03 0.00 79 1018.8
20260507085512 29 250 5.2 7.0 0.00 0.03 0.00 83 1018.8
20260507085012 27 248 0.0 4.3 0.00 0.03 0.00 84 1018.8
20260507084528 27 0 0.9 6.1 0.00 0.03 0.00 84 1018.8
20260507084014 27 142 3.5 6.1 0.00 0.03 0.00 84 1018.8
20260507083514 27 119 2.6 4.3 0.00 0.03 0.00 84 1018.8
20260507083032 27 114 1.7 3.5 0.00 0.03 0.00 85 1018.7
20260507082513 27 0 1.7 4.3 0.00 0.03 0.00 86 1019.0
20260507082013 27 132 2.6 4.3 0.00 0.03 0.00 86 1018.8
20260507081541 27 128 1.7 3.5 0.00 0.03 0.00 86 1019.1
20260507081012 27 128 1.7 3.5 0.00 0.03 0.00 87 1018.9
20260507080512 27 129 1.7 4.3 0.00 0.03 0.00 87 1018.9
20260507080031 27 133 1.7 6.1 0.00 0.03 0.00 88 1018.9
20260507075516 27 148 2.6 6.1 0.00 0.03 0.00 88 1019.2
20260507075011 27 150 3.5 6.1 0.00 0.03 0.00 89 1019.2
20260507074546 27 146 3.5 6.1 0.00 0.03 0.00 89 1019.0
20260507074011 27 144 1.7 5.2 0.00 0.03 0.00 90 1019.2
20260507073514 27 163 1.7 4.3 0.00 0.03 0.00 90 1019.1
20260507073030 27 173 1.7 4.3 0.00 0.03 0.00 90 1019.2
20260507072516 27 173 1.7 6.1 0.00 0.03 0.00 90 1019.3
20260507072010 27 182 2.6 6.1 0.00 0.03 0.00 91 1019.4
20260507071530 27 179 2.6 6.1 0.00 0.03 0.00 91 1019.3
20260507071013 27 190 3.5 7.0 0.00 0.03 0.00 91 1019.3
20260507070512 27 189 4.3 7.0 0.00 0.03 0.00 91 1019.4
20260507070032 27 164 3.5 6.1 0.00 0.03 0.00 92 1019.4
20260507065512 27 181 3.5 6.1 0.00 0.03 0.00 92 1019.3
20260507065013 27 182 2.6 7.0 0.00 0.03 0.00 92 1019.3
20260507064530 27 182 4.3 7.0 0.00 0.03 0.00 92 1019.4
20260507064013 27 192 1.7 6.1 0.00 0.03 0.00 92 1019.6
20260507063514 28 176 3.5 7.0 0.00 0.03 0.00 93 1019.6
20260507063032 28 176 4.3 7.0 0.00 0.03 0.00 93 1019.4
20260507062514 27 176 4.3 7.0 0.00 0.03 0.00 93 1019.5
20260507062012 27 180 2.6 5.2 0.00 0.03 0.00 92 1019.6
20260507061533 27 178 1.7 5.2 0.00 0.03 0.00 93 1019.6
20260507061014 27 171 2.6 5.2 0.00 0.03 0.00 93 1019.5
20260507060514 27 177 1.7 4.3 0.00 0.03 0.00 92 1019.4
20260507060030 27 189 0.9 6.1 0.00 0.03 0.00 92 1019.4
20260507055514 27 0 2.6 6.1 0.00 0.03 0.03 93 1019.4
20260507055016 27 172 1.7 5.2 0.00 0.03 0.03 92 1019.4
20260507054532 27 192 1.7 3.5 0.00 0.03 0.03 92 1019.4
20260507054014 27 196 1.7 4.3 0.00 0.03 0.03 92 1019.3
20260507053513 28 200 1.7 4.3 0.00 0.03 0.03 92 1019.2
20260507053030 27 204 1.7 4.3 0.00 0.03 0.03 92 1019.4
20260507052512 27 188 1.7 5.2 0.00 0.03 0.03 92 1019.3
20260507052011 27 236 2.6 6.1 0.00 0.03 0.03 92 1019.2
20260507051530 27 200 2.6 7.0 0.00 0.03 0.03 92 1019.2
20260507051017 27 226 3.5 7.8 0.00 0.03 0.03 92 1019.2
20260507050515 27 178 1.7 7.8 0.00 0.03 0.03 92 1019.2
20260507050032 27 139 3.5 6.1 0.00 0.03 0.03 92 1019.3
20260507045514 27 194 2.6 7.0 0.00 0.03 0.03 92 1019.2
20260507045014 27 194 2.6 7.0 0.00 0.03 0.03 91 1019.2
20260507044529 27 170 3.5 7.0 0.00 0.03 0.03 91 1019.2
20260507044012 27 172 2.6 7.8 0.00 0.03 0.03 91 1019.2
20260507043513 27 173 4.3 8.7 0.00 0.03 0.03 91 1019.1
20260507043032 27 192 3.5 8.7 0.00 0.03 0.03 91 1019.2
20260507042515 27 160 2.6 8.7 0.00 0.03 0.03 91 1019.1
20260507042014 28 186 4.3 9.6 0.00 0.03 0.03 91 1019.1
20260507041530 28 215 4.3 9.6 0.00 0.03 0.03 91 1019.1
20260507041013 28 185 4.3 8.7 0.00 0.03 0.03 91 1019.2
20260507040513 28 225 0.9 9.6 0.00 0.03 0.03 90 1019.2
20260507040029 28 184 3.5 9.6 0.00 0.03 0.03 91 1019.1
20260507035512 28 171 4.3 8.7 0.00 0.03 0.03 90 1019.1
20260507035014 28 178 2.6 7.8 0.00 0.03 0.03 90 1019.2
20260507034530 28 176 1.7 6.1 0.00 0.03 0.03 90 1019.2
20260507034012 28 178 2.6 5.2 0.00 0.03 0.03 90 1019.2
20260507033511 28 180 2.6 8.7 0.00 0.03 0.03 90 1019.2
20260507033033 28 202 2.6 8.7 0.00 0.03 0.03 90 1019.1
20260507032511 28 183 3.5 10.4 0.00 0.03 0.03 90 1019.1
20260507032018 28 223 3.5 10.4 0.00 0.03 0.03 90 1019.0
20260507031532 28 219 2.6 8.7 0.00 0.03 0.03 90 1018.8
20260507031015 28 227 2.6 7.8 0.00 0.03 0.03 90 1018.9
20260507030513 28 192 2.6 7.8 0.00 0.03 0.03 90 1018.7
20260507030030 28 220 2.6 5.2 0.00 0.03 0.03 90 1018.7
20260507025511 28 209 2.6 6.1 0.00 0.03 0.03 90 1018.6
20260507025010 28 166 2.6 7.8 0.00 0.03 0.03 90 1018.6
20260507024533 29 189 1.7 7.8 0.00 0.03 0.03 90 1018.5
20260507024012 29 219 2.6 7.8 0.00 0.03 0.03 90 1018.6
20260507023511 29 174 2.6 7.8 0.00 0.03 0.03 90 1018.5
20260507023032 29 180 1.7 4.3 0.00 0.03 0.03 90 1018.5
20260507022511 29 207 1.7 7.0 0.00 0.03 0.03 90 1018.5
20260507022012 30 173 2.6 9.6 0.00 0.03 0.03 90 1018.5
20260507021535 30 168 4.3 10.4 0.00 0.03 0.03 90 1018.5
20260507021011 31 177 6.1 10.4 0.00 0.03 0.03 91 1018.5
20260507020516 32 184 5.2 8.7 0.00 0.03 0.03 91 1018.3
20260507020031 31 166 4.3 9.6 0.00 0.03 0.03 92 1018.3
20260507015510 31 159 5.2 9.6 0.00 0.03 0.03 92 1018.3
20260507015010 32 178 6.1 9.6 0.00 0.03 0.03 92 1018.2
20260507014543 32 194 5.2 9.6 0.00 0.03 0.03 91 1018.3
20260507014012 32 161 5.2 12.2 0.00 0.03 0.03 91 1018.2
20260507013513 32 167 6.1 12.2 0.00 0.03 0.03 91 1018.3
20260507013028 32 180 7.0 12.2 0.00 0.03 0.03 91 1018.2
20260507012513 32 175 6.1 11.3 0.00 0.03 0.03 91 1018.2
20260507012017 32 161 5.2 13.0 0.00 0.03 0.03 91 1018.4
20260507011533 33 198 7.8 13.0 0.00 0.03 0.03 90 1018.2
20260507011013 33 174 7.0 10.4 0.00 0.03 0.03 90 1018.2
20260507010514 34 171 5.2 10.4 0.00 0.03 0.03 90 1018.2
20260507010034 34 155 5.2 9.6 0.00 0.03 0.03 90 1018.2
20260507005512 34 175 5.2 10.4 0.00 0.03 0.03 90 1018.1
20260507005017 34 209 6.1 10.4 0.00 0.03 0.03 90 1018.2
20260507004530 34 149 4.3 8.7 0.00 0.03 0.03 90 1018.2
20260507004015 34 212 3.5 9.6 0.00 0.03 0.03 90 1018.0
20260507003512 35 193 5.2 9.6 0.00 0.03 0.03 91 1018.0
20260507003033 36 200 3.5 10.4 0.00 0.03 0.03 91 1018.0
20260507002513 35 181 5.2 10.4 0.00 0.03 0.03 92 1018.0
20260507002013 36 169 4.3 9.6 0.00 0.03 0.03 92 1018.0
20260507001529 36 219 4.3 8.7 0.00 0.03 0.03 91 1018.1
20260507001017 35 171 5.2 10.4 0.00 0.03 0.03 91 1018.2
20260507000512 35 182 5.2 10.4 0.00 0.03 0.03 91 1018.2
20260507000036 34 181 4.3 7.8 0.00 0.03 0.03 90 1018.3
20260506235511 34 158 4.3 7.0 0.00 0.05 0.03 90 1018.3
20260506235012 34 190 4.3 7.8 0.00 0.05 0.03 88 1018.2
20260506234532 34 208 2.6 7.8 0.00 0.05 0.03 88 1018.1
20260506234011 35 172 3.5 7.8 0.00 0.05 0.03 87 1018.2
20260506233513 35 227 1.7 6.1 0.00 0.05 0.03 86 1018.1
20260506233033 35 218 2.6 7.0 0.00 0.05 0.03 85 1018.2
20260506232513 35 202 1.7 7.0 0.00 0.05 0.03 85 1018.1
20260506232012 35 234 1.7 7.8 0.00 0.05 0.03 85 1018.4
20260506231532 35 203 3.5 7.8 0.00 0.05 0.03 84 1018.2
20260506231012 35 234 2.6 7.8 0.00 0.05 0.03 86 1018.2
20260506230515 35 217 2.6 5.2 0.00 0.05 0.03 85 1018.2
20260506230031 35 215 2.6 4.3 0.00 0.05 0.03 86 1018.0
20260506225515 35 0 1.7 4.3 0.00 0.06 0.03 85 1018.0
20260506225011 34 292 0.9 4.3 0.00 0.06 0.03 86 1018.1
20260506224529 34 0 0.9 4.3 0.00 0.06 0.03 86 1018.1
20260506224015 33 0 0.9 4.3 0.00 0.06 0.03 86 1018.2
20260506223511 33 292 1.7 4.3 0.01 0.06 0.03 86 1018.3
20260506223027 33 0 0.0 4.3 0.01 0.06 0.03 87 1018.3
20260506222513 32 292 1.7 7.0 0.01 0.06 0.03 86 1018.4
20260506222018 32 331 1.7 7.0 0.01 0.06 0.03 87 1018.4
20260506221530 32 297 3.5 7.0 0.01 0.06 0.03 87 1018.5
20260506221021 32 311 1.7 7.8 0.01 0.06 0.03 87 1018.6
20260506220512 31 334 2.6 7.8 0.02 0.06 0.03 88 1018.5
20260506220030 31 319 2.6 8.7 0.02 0.06 0.03 88 1018.5
20260506215516 31 5 4.3 8.7 0.02 0.07 0.03 89 1018.5
20260506215010 31 30 3.5 8.7 0.02 0.07 0.03 89 1018.5
20260506214531 31 32 4.3 8.7 0.02 0.07 0.03 89 1018.5
20260506214014 31 19 5.2 9.6 0.02 0.07 0.03 89 1018.6
20260506213511 31 346 4.3 9.6 0.01 0.06 0.02 89 1018.7
20260506213030 31 360 4.3 8.7 0.01 0.06 0.02 90 1018.7
20260506212514 30 320 3.5 7.8 0.01 0.06 0.02 89 1018.9
20260506212013 30 360 1.7 7.8 0.01 0.06 0.02 89 1018.9
20260506211534 31 17 2.6 7.8 0.01 0.06 0.02 89 1019.0
20260506211013 31 348 5.2 7.8 0.01 0.06 0.02 89 1019.0
20260506210517 31 15 3.5 7.8 0.00 0.05 0.01 92 1018.9
20260506210031 30 347 4.3 8.7 0.00 0.05 0.01 91 1018.8
20260506205515 30 41 5.2 8.7 0.00 0.05 0.01 90 1018.9
20260506205012 30 24 5.2 10.4 0.00 0.05 0.01 90 1018.8
20260506204531 30 11 7.0 10.4 0.00 0.05 0.01 91 1018.9
20260506204011 30 5 7.8 11.3 0.00 0.05 0.01 91 1019.0
20260506203518 30 10 6.1 11.3 0.00 0.05 0.01 92 1019.0
20260506203030 29 34 7.8 12.2 0.00 0.05 0.01 91 1018.9
20260506202512 29 43 7.8 12.2 0.00 0.05 0.01 92 1019.0
20260506202011 29 24 10.4 12.2 0.00 0.05 0.01 91 1018.9
20260506201531 29 14 9.6 12.2 0.00 0.05 0.01 92 1019.0
20260506201013 29 31 8.7 12.2 0.00 0.05 0.01 91 1018.9
20260506200517 29 28 9.6 12.2 0.00 0.05 0.01 91 1018.9
20260506200030 29 41 7.8 12.2 0.00 0.05 0.01 91 1018.8
20260506195512 30 36 8.7 12.2 0.00 0.06 0.01 91 1018.8
20260506195011 30 21 7.0 11.3 0.00 0.06 0.01 92 1018.8
20260506194530 29 5 7.8 11.3 0.00 0.06 0.01 92 1018.8
20260506194013 29 5 7.8 11.3 0.00 0.06 0.01 91 1018.8
20260506193511 29 15 7.8 11.3 0.00 0.06 0.01 92 1018.7
20260506193033 29 360 7.8 12.2 0.00 0.06 0.01 92 1018.8
20260506192514 29 17 8.7 13.0 0.00 0.06 0.01 91 1018.7
20260506192013 29 9 8.7 13.0 0.00 0.06 0.01 92 1018.7
20260506191531 29 22 9.6 13.9 0.00 0.06 0.01 91 1018.8
20260506191012 30 5 9.6 13.9 0.00 0.06 0.01 92 1018.7
20260506190511 30 360 7.8 11.3 0.00 0.06 0.01 92 1018.7
20260506190030 29 9 7.8 11.3 0.00 0.06 0.01 91 1018.6
20260506185511 30 15 7.8 11.3 0.00 0.08 0.01 92 1018.7
20260506185011 30 17 7.8 11.3 0.00 0.08 0.01 93 1018.7
20260506184530 30 344 7.8 11.3 0.00 0.08 0.01 92 1018.8
20260506184012 29 352 7.8 10.4 0.00 0.08 0.01 92 1018.8
20260506183514 29 12 7.8 10.4 0.00 0.08 0.01 92 1018.8
20260506183030 30 355 7.8 10.4 0.00 0.08 0.01 92 1018.8
20260506182513 30 360 7.8 11.3 0.00 0.08 0.01 92 1018.9
20260506182014 30 360 8.7 11.3 0.00 0.08 0.01 92 1018.9
20260506181531 30 355 7.8 11.3 0.00 0.08 0.01 93 1018.8
20260506181015 30 350 7.0 9.6 0.00 0.08 0.01 93 1018.8